STARLINK G (44241 NORAD) Tracking and Keplerian Element Data

This shows tracking and keplerian element data for the satellite.

Feedback or suggestion? Click here.




ElementValue
Catalog44241
NameSTARLINK G
Epoch Orbit467
Epoch Day174.04447466
Epoch Year2019
RAAN37.9179
Inclination53.0071
Eccentricity0.0001878
Argument of Perigee129.0983
Mean Anonmoly231.0172
Mean Motion15.05494977
Decay Rate1.196E-05
L11 44241U 19029G 19174.04447466 .00001196 00000-0 10145-3 0 9994
L22 44241 53.0071 37.9179 0001878 129.0983 231.0172 15.05494977 4679

Live tracking and technical data element details for STARLINK G (NORAD 44241). STARLINK G can be tracked NOW for your location showing map with azimuth and elevation plus other details from your city location.

Track the satellite on the map from your city or location and see movement details for azimuth, elevation, latitude, longitude, range, height, and movement on the map or in text.







IsCatalogInMostPopularTable: catalog: 44241, numindb: 36
Update: records affected: 1



GetName: 44241 STARLINK G

Hit Count: updated at: Tue, 16 Jul 2019 21:14:02 GMT